Theta_e
334 333 342 346 351 352 355 355 353 349 345 346 342 342 343 345 347 342 339 338 340 340 339 339 339 337 335 333 330 328 334 341 334 338 336 336 336 337 338 339 338 342 331 329 338 328 323 325 324
342 345 347 348 352 356 358 355 355 347 345 344 345 347 346 347 346 343 340 339 340 340 339 338 338 336 333 328 327 328 328 329 330 335 339 337 338 339 339 340 338 335 332 340 339 339 339 341 340
339 348 348 351 355 357 358 354 347 345 344 344 345 347 348 348 345 342 340 339 340 340 338 338 333 338 337 335 342 330 333 331 327 331 337 338 341 338 340 341 339 336 335 341 342 342 341 342 343
348 348 348 355 360 353 355 352 345 343 344 345 346 347 347 345 345 343 339 338 337 337 337 332 331 339 334 334 340 337 338 339 334 338 336 335 340 339 340 339 337 330 338 339 342 341 343 341 341
348 350 354 356 356 353 350 353 344 346 345 345 346 346 346 346 344 340 339 339 336 331 331 333 335 340 334 342 336 333 333 338 341 334 337 339 339 337 340 337 332 329 334 338 339 341 342 341 341
350 349 356 360 357 354 353 352 345 345 345 345 345 346 346 346 340 340 339 336 328 329 334 333 333 336 332 338 338 338 339 339 339 338 338 338 336 338 339 338 333 331 330 336 338 337 342 340 340
351 353 358 357 356 356 353 348 346 345 345 345 345 345 346 342 340 339 337 330 329 334 334 333 334 341 334 335 338 339 339 340 340 339 338 335 335 337 340 339 333 332 332 336 337 341 341 340 341
350 348 353 354 357 358 349 350 350 347 345 344 342 345 346 342 339 335 330 329 334 335 336 336 337 336 336 341 339 337 336 335 337 336 338 336 335 339 339 339 337 332 334 339 338 342 342 342 341
348 351 354 354 356 355 348 348 348 345 344 343 344 343 343 341 336 333 331 334 335 337 337 336 337 337 336 335 337 337 334 337 337 336 336 337 335 338 338 338 334 333 330 334 339 340 341 342 340
347 349 350 348 348 354 349 348 347 346 345 344 344 344 343 341 340 339 335 334 335 335 336 334 337 336 333 337 337 337 335 338 335 329 333 333 337 338 338 333 332 332 333 336 339 341 341 343 343
346 350 346 347 349 350 349 348 346 347 350 344 344 343 344 343 344 341 334 334 335 336 336 338 335 336 335 335 337 338 342 339 337 332 333 337 338 337 332 330 332 337 339 340 340 341 342 345 344
345 345 347 348 351 351 349 348 346 346 346 344 344 344 344 344 345 340 339 340 339 342 343 338 339 341 339 334 339 342 343 342 339 331 334 336 336 336 338 338 337 339 342 343 344 343 340 340 341
346 348 346 351 349 349 348 348 346 347 344 343 344 344 344 344 346 343 343 343 342 343 340 344 343 342 340 337 342 344 342 341 337 334 335 336 338 340 342 342 342 343 342 343 342 341 340 339 340
345 347 348 350 349 348 350 348 349 346 349 344 346 346 345 345 346 346 344 345 344 345 341 343 344 344 342 341 341 341 342 343 342 341 338 339 341 341 340 337 338 340 342 341 342 341 340 340 338
333 348 348 350 350 349 347 349 350 347 348 344 345 346 346 346 345 346 344 345 345 345 343 344 345 343 344 343 342 342 343 342 342 342 341 337 340 341 341 338 340 342 341 341 342 343 340 340 338
330 342 354 350 352 348 348 351 348 346 348 346 343 345 346 347 346 346 345 344 346 345 344 344 345 345 346 345 345 342 342 344 343 345 343 342 342 342 339 341 343 342 343 342 343 343 340 338 339
320 332 348 353 352 351 348 349 346 346 347 347 342 341 344 346 346 346 345 345 347 346 346 344 344 346 346 346 346 345 344 343 342 345 344 345 342 340 342 342 342 341 341 343 343 344 343 342 341
325 327 344 355 353 352 350 348 347 346 348 349 345 340 343 346 346 346 344 346 347 345 345 342 344 345 345 346 345 346 345 345 345 343 342 344 344 343 344 343 341 343 343 344 343 344 344 342 342
322 324 355 353 348 346 347 349 348 347 348 349 349 340 343 345 346 346 344 346 347 347 343 343 343 343 345 345 345 344 345 342 341 343 342 342 342 342 342 343 340 342 343 344 343 344 345 342 342
322 339 352 350 349 349 346 350 348 347 348 349 349 341 343 345 347 345 345 347 348 346 344 342 344 341 342 345 344 345 345 345 343 343 343 343 342 340 344 343 340 342 344 344 344 344 343 342 343
320 325 348 351 348 349 350 351 350 347 346 348 349 341 343 345 346 345 346 348 347 345 345 344 342 345 340 346 347 344 345 345 345 345 343 342 342 343 341 343 343 340 343 343 342 344 343 343 343
321 320 343 348 347 348 347 351 348 350 350 348 347 340 344 344 345 345 347 348 346 345 345 344 345 346 341 345 347 346 346 345 344 346 345 343 343 343 343 341 340 343 343 343 342 343 344 343 344
321 321 337 346 347 348 352 346 344 350 352 350 347 340 342 344 345 346 346 345 344 344 343 344 345 346 344 344 347 346 348 346 345 346 345 345 345 343 343 341 342 343 344 342 342 344 344 344 344
323 336 338 336 338 344 348 347 348 349 350 349 347 343 340 344 344 344 345 344 344 344 344 344 345 345 345 343 344 346 348 348 347 346 345 344 345 346 344 345 344 342 344 344 342 344 343 343 344
322 330 336 344 344 345 339 346 340 345 346 347 347 345 341 341 344 344 345 344 344 344 343 344 343 343 343 339 342 345 346 346 344 343 348 344 347 345 344 344 343 342 343 344 340 341 342 343 344
319 324 326 340 342 339 340 343 343 343 344 346 348 346 345 342 343 344 342 345 344 344 343 342 343 342 342 340 337 344 345 346 344 347 348 348 346 347 347 346 344 343 340 341 342 341 342 343 343
322 323 321 324 324 339 342 342 341 344 342 346 347 347 347 344 342 344 343 345 345 345 345 345 344 343 343 340 338 340 343 345 345 346 348 346 345 345 343 347 345 344 342 344 344 340 341 343 342
320 321 326 322 328 340 344 347 346 350 347 341 346 346 347 347 345 343 343 343 345 346 346 345 346 345 344 342 339 342 345 346 343 347 348 348 346 347 347 347 346 345 341 341 342 341 340 337 337
326 327 322 320 323 338 344 345 347 348 350 348 346 344 347 347 346 346 345 342 343 346 346 346 345 345 344 345 341 344 346 347 343 346 346 347 348 347 347 349 350 348 346 342 343 341 341 339 337
323 325 323 325 331 332 338 347 344 346 345 345 344 343 345 346 347 346 346 345 346 346 345 339 342 345 344 347 346 343 341 343 344 341 340 345 346 347 345 347 348 349 348 343 345 344 344 343 338
Wind_Speed
10 9 5 1 1 1 3 5 2 6 11 13 28 5 5 10 2 3 25 27 25 24 22 20 18 16 15 14 14 14 15 14 14 14 14 15 16 16 16 17 17 16 18 21 22 24 24 24 22
10 7 2 2 3 2 1 4 3 3 11 35 13 15 8 3 5 23 31 26 24 26 22 20 17 15 13 13 12 13 13 13 13 14 13 14 14 15 17 17 17 16 19 21 23 22 23 22 21
8 3 1 1 2 4 2 2 9 21 28 23 8 14 5 3 18 35 28 28 26 26 23 18 16 15 13 13 10 12 13 12 13 14 14 14 15 15 16 17 17 17 21 20 19 19 17 16 15
6 2 0 2 6 4 5 5 12 8 15 8 23 11 10 16 22 22 32 27 25 24 23 18 16 14 13 13 12 10 14 12 13 14 13 14 16 17 16 17 16 18 20 20 20 17 15 18 18
5 1 2 3 5 3 3 8 7 4 5 15 11 8 13 12 17 33 31 26 25 24 21 17 15 12 13 13 11 11 13 13 13 14 15 15 15 17 16 16 16 17 18 18 18 17 17 17 16
2 1 2 2 5 1 1 8 5 13 17 21 19 17 7 16 32 31 27 25 22 21 18 16 14 13 13 13 12 12 13 13 14 14 15 15 16 16 17 17 17 18 17 17 16 15 16 16 14
3 1 2 3 6 3 4 4 6 11 14 12 20 7 17 29 29 28 25 23 21 18 17 17 15 13 13 13 13 12 12 12 12 14 15 17 17 16 17 17 18 18 19 19 16 17 15 13 13
2 1 3 2 6 4 3 3 7 10 14 21 24 6 16 35 31 29 27 24 20 18 16 14 14 13 14 12 12 12 13 13 13 14 14 17 18 18 17 17 18 19 20 17 16 15 12 11 9
1 1 4 7 6 7 8 4 10 10 20 10 4 23 33 37 35 30 27 24 21 18 16 13 14 13 13 13 13 14 14 13 14 13 16 17 19 18 17 18 18 19 19 19 16 15 12 11 9
2 1 2 4 3 9 16 12 14 9 14 17 29 27 34 36 35 30 28 24 21 19 17 14 14 13 13 13 14 15 16 14 14 16 18 19 19 19 16 18 18 20 21 19 15 12 10 7 7
5 3 4 4 7 7 16 12 9 18 3 22 36 35 35 35 33 29 26 22 19 18 18 17 15 13 12 14 16 17 15 17 16 17 20 19 18 19 19 20 21 21 20 17 14 9 5 2 1
4 3 7 3 9 22 18 13 14 15 7 27 36 38 38 36 33 30 26 22 24 20 17 18 16 13 14 16 18 15 16 16 14 17 19 18 18 20 20 21 20 20 16 14 10 9 8 6 0
3 6 9 6 6 17 21 11 9 16 5 29 36 38 38 37 33 28 24 23 24 20 19 19 18 16 15 17 17 18 16 16 16 17 17 16 18 19 17 16 17 14 14 12 10 10 7 6 8
11 13 10 9 10 20 15 7 11 11 11 27 38 36 37 35 35 28 26 26 23 20 16 18 15 16 16 18 18 18 17 14 13 13 16 17 14 13 12 15 13 14 12 10 8 6 4 3 4
15 7 10 9 16 6 18 3 3 14 17 26 34 38 36 33 34 30 27 27 23 19 16 16 16 17 16 17 15 17 15 14 12 11 13 16 12 9 12 12 13 10 10 10 7 3 5 3 1
2 6 5 7 16 13 1 3 8 12 14 21 32 33 35 33 34 31 27 26 23 20 15 16 19 16 16 15 15 15 14 12 11 10 11 11 11 9 10 10 11 11 8 9 4 4 8 7 5
5 4 5 7 15 4 3 3 12 19 15 15 31 30 31 34 34 32 28 25 25 19 15 16 17 18 16 16 14 10 12 10 10 10 13 11 11 10 9 10 9 8 9 8 3 2 2 3 6
3 3 1 4 9 9 5 6 13 27 15 12 17 27 33 34 37 34 31 26 27 21 15 16 18 18 16 14 13 12 12 9 10 9 11 13 11 12 9 9 8 11 9 4 4 2 1 3 5
4 2 9 6 8 6 5 6 10 22 13 12 14 21 31 37 38 37 32 29 26 21 17 19 21 17 17 16 16 13 12 10 11 10 12 12 11 14 13 9 11 11 6 5 5 2 2 3 1
3 4 6 8 7 7 10 9 8 18 13 13 15 17 31 30 36 39 35 32 28 22 19 17 19 15 18 16 13 11 11 8 12 9 10 11 13 14 14 12 11 10 7 8 5 2 1 1 2
3 5 6 8 7 5 8 2 8 11 14 16 18 19 32 33 38 39 38 34 29 24 22 19 21 14 19 17 14 13 12 10 12 11 10 11 12 12 14 13 13 12 8 9 7 4 3 3 2
2 7 8 14 10 5 7 3 5 12 13 15 19 23 34 37 41 42 39 37 31 26 22 20 22 16 15 19 17 13 12 10 8 9 10 11 10 13 12 12 15 11 9 8 9 7 5 5 4
9 6 13 13 4 5 4 2 2 11 11 10 18 24 36 42 47 45 42 38 32 27 24 20 23 19 16 21 17 12 11 11 8 9 11 13 10 9 10 12 14 13 11 9 10 11 8 5 2
2 9 11 5 3 2 7 6 5 12 17 23 28 26 34 40 43 46 44 39 35 29 25 22 22 22 20 20 22 16 10 12 11 9 10 15 12 13 13 13 14 12 13 9 11 12 10 7 2
4 7 2 3 1 5 5 2 4 12 18 26 29 23 32 33 34 33 35 41 38 33 29 24 22 23 22 19 25 21 14 11 11 13 10 13 14 14 15 13 13 13 13 12 11 14 13 11 6
7 9 6 6 5 3 5 5 3 7 19 12 27 26 28 33 35 37 35 42 39 35 30 25 24 20 21 22 25 22 17 14 13 12 12 13 13 12 13 13 12 10 11 14 14 15 15 14 10
4 4 6 7 2 4 3 1 4 9 9 16 23 26 25 31 34 37 35 31 32 36 35 32 28 23 18 23 24 21 18 15 12 10 12 12 11 12 14 12 10 10 13 16 14 16 17 16 14
7 6 3 3 5 3 3 1 2 3 6 6 13 18 21 26 30 32 28 37 34 35 35 33 29 22 19 21 25 24 18 15 14 11 11 14 13 13 12 12 11 12 11 16 15 15 17 16 17
3 2 6 5 3 5 3 4 4 3 8 11 13 18 21 21 24 27 28 32 30 32 33 30 27 23 23 22 22 27 23 19 16 16 12 13 14 14 12 12 12 13 13 14 15 15 15 19 16
1 5 5 5 3 3 4 3 4 9 11 15 19 20 21 22 22 23 29 29 30 29 18 22 20 21 22 22 21 24 26 23 21 18 16 16 17 16 14 14 13 13 14 14 15 13 13 13 16
Wind_Direction
133 144 154 75 79 299 197 256 354 120 134 167 153 149 175 116 158 187 145 156 163 157 151 152 148 143 139 138 137 137 135 130 131 125 125 118 117 114 116 115 113 111 113 116 114 113 112 110 108
134 134 131 109 102 338 171 309 254 173 126 136 141 111 56 71 129 139 146 157 162 160 158 153 149 145 141 136 136 140 143 144 140 140 134 130 123 122 120 119 120 119 122 120 119 116 115 112 106
155 135 22 262 115 207 310 159 107 112 126 133 112 95 72 77 131 141 149 153 159 161 159 157 151 144 147 135 142 137 131 136 144 146 141 136 132 127 124 119 118 123 128 126 122 120 112 109 104
157 204 283 337 243 175 208 123 131 112 96 114 113 89 78 133 134 150 147 151 151 149 154 155 151 152 147 143 135 138 137 136 137 139 144 143 139 131 132 120 123 131 135 127 123 114 110 107 104
170 212 196 214 244 161 234 293 209 94 82 135 123 96 106 146 151 147 149 151 150 147 150 151 151 153 147 140 145 143 140 143 138 145 146 139 140 137 135 122 122 130 136 129 123 113 109 110 101
256 168 316 223 200 101 13 296 137 99 108 111 108 109 93 149 147 148 151 151 151 149 153 153 153 149 148 146 141 137 142 140 142 141 140 145 142 139 134 128 124 132 135 134 127 108 112 108 95
252 209 281 241 184 118 122 55 86 125 102 94 124 90 135 150 151 148 152 152 152 155 157 152 148 147 144 138 138 139 141 137 136 140 142 143 140 137 132 133 128 134 138 139 124 110 109 108 93
158 196 278 179 167 109 45 73 91 64 78 117 112 134 155 156 153 154 155 157 156 156 152 147 148 150 145 145 141 141 138 136 134 143 141 142 139 136 134 137 134 137 144 145 127 120 112 106 99
188 95 4 341 115 101 148 166 73 95 126 112 152 146 153 156 155 155 156 161 159 156 153 150 153 150 149 146 142 139 136 130 130 134 138 141 139 139 130 139 137 138 141 144 145 136 121 100 91
116 69 180 4 301 153 175 137 109 129 135 99 112 136 153 160 157 157 160 166 163 157 155 151 151 150 147 147 141 137 131 124 124 128 137 136 137 137 136 135 133 133 136 138 140 137 126 97 66
162 183 168 330 268 213 144 131 125 145 111 142 138 147 165 165 165 160 164 167 161 156 154 146 147 146 148 146 141 136 136 130 116 126 132 135 139 136 132 130 130 129 135 139 136 134 121 118 141
141 244 108 312 31 152 155 138 143 172 163 155 155 163 167 170 170 167 163 160 156 151 154 145 143 142 146 148 140 140 135 139 127 129 136 136 138 132 129 127 132 135 139 133 131 117 110 99 126
214 147 173 141 125 143 139 153 159 217 212 151 156 169 175 175 173 171 162 159 153 144 150 147 139 133 141 145 144 142 138 130 125 126 135 137 135 131 131 138 143 141 143 128 115 117 100 74 68
205 172 164 160 163 141 121 139 176 208 161 154 158 162 180 177 176 173 172 169 164 152 156 162 147 149 145 147 141 144 146 144 137 137 132 135 137 134 130 139 145 139 139 134 118 107 128 92 63
245 162 166 169 165 126 122 75 171 169 167 164 157 172 179 182 179 181 178 176 167 156 155 166 159 152 152 155 152 150 156 151 147 141 142 157 153 149 138 140 137 148 154 144 123 98 105 160 349
211 132 154 176 173 181 182 199 222 184 179 175 159 166 178 182 191 188 184 177 172 164 163 168 178 169 164 163 162 166 167 166 162 163 164 164 169 160 147 143 141 147 144 165 151 109 115 122 105
18 162 189 167 195 140 219 138 195 192 189 186 172 169 176 188 193 191 189 182 172 171 171 175 178 177 172 173 179 177 180 177 167 177 182 184 175 168 157 147 150 157 168 169 149 116 84 137 138
68 43 133 149 172 102 328 306 177 195 187 201 185 166 176 182 194 192 191 185 178 176 174 178 166 173 178 174 177 182 184 193 199 195 197 193 191 190 183 160 157 149 161 173 175 157 89 139 122
102 2 79 69 83 86 258 285 188 189 200 206 198 168 173 182 194 192 189 187 182 180 177 180 175 177 189 184 186 190 192 201 211 205 204 195 194 197 197 189 177 166 168 173 184 201 265 199 304
124 101 89 79 128 73 264 252 173 199 224 221 206 180 173 175 184 190 189 187 185 180 178 177 184 196 196 191 189 196 188 185 195 192 199 201 206 195 195 194 191 192 197 190 184 182 122 171 278
138 160 176 141 146 143 170 306 200 223 232 236 225 192 179 176 181 186 189 187 186 187 183 180 185 199 196 197 201 189 179 192 186 182 182 187 189 198 209 212 206 203 208 198 214 201 188 173 221
204 192 155 151 165 176 165 218 220 182 212 236 222 182 173 179 185 188 190 188 189 194 192 187 189 198 200 199 199 201 200 189 187 187 177 177 181 197 200 203 194 202 207 211 206 212 209 202 219
223 154 180 160 96 100 176 121 226 164 200 225 227 194 182 184 187 190 191 193 193 196 199 199 198 200 200 205 207 212 213 205 212 201 187 186 177 181 191 188 195 213 219 230 219 211 215 208 242
137 83 60 66 107 323 189 189 192 178 185 198 224 197 186 187 185 192 195 193 196 197 202 204 204 205 206 213 211 211 211 213 211 214 204 191 189 190 194 204 215 218 222 234 216 215 221 219 249
129 96 54 56 45 221 163 157 219 201 195 201 199 181 184 188 185 183 191 197 198 199 204 207 211 212 210 217 213 217 215 221 233 227 227 209 206 207 205 209 210 217 222 215 218 218 223 222 237
186 154 150 157 187 235 99 222 295 268 212 174 185 164 171 177 181 185 208 206 203 204 206 209 214 216 216 218 218 222 223 226 237 225 232 222 230 230 225 220 209 213 212 217 224 218 226 230 235
193 146 184 105 17 101 197 28 21 42 77 128 132 154 150 163 169 179 201 200 206 209 210 213 216 219 223 224 224 226 228 230 227 222 216 221 234 229 225 224 225 223 218 212 229 224 229 238 239
155 160 76 14 139 148 331 78 249 51 109 96 100 127 145 156 160 173 191 208 216 212 212 214 216 223 237 231 229 230 234 237 235 228 234 226 219 217 218 231 240 242 243 229 226 230 230 238 241
48 71 60 110 106 145 142 282 336 160 124 121 113 126 137 149 171 180 191 202 211 213 213 211 211 214 225 233 236 234 237 236 238 236 234 227 227 232 239 246 252 258 257 246 236 236 239 239 238
54 148 127 122 197 78 115 259 42 87 96 111 122 135 141 148 147 161 173 178 184 189 179 212 224 227 224 231 239 239 238 242 244 247 244 246 246 245 242 245 253 258 254 251 243 240 240 253 246